{"data":{"norad_id":66082,"epoch":"2026-09-20T16:53:14.985024Z","epoch_age_seconds":85400,"freshness":"FRESH","line1":"1 66082U 25235AA  26263.70364566  .00005416  00000+0  18617-3 0  9996","line2":"2 66082  53.1603  57.6953 0001957  88.4953 271.6273 15.31699516 52805","mean_motion":15.31699516,"eccentricity":0.0001957,"inclination_deg":53.1603,"raan_deg":57.6953,"arg_perigee_deg":88.4953,"mean_anomaly_deg":271.6273,"bstar":0.00018617,"rev_number":5280,"period_min":94.01321766821,"perigee_km":469.40111249452,"apogee_km":472.08176351516,"semimajor_km":6848.8784380048,"source":"CELESTRAK","updated_at":"2026-09-21T09:00:35.799081Z"}}